Location: G�nzburg
(48.4565°N, 10.3217°E)
Time: 05:31:27
(UTC+01:00)

ISS - Pass Details

Date: 11 November 2017
Orbit: 401 x 407 km, 51.6° (Epoch: 18 November)

Event Time Altitude Azimuth Distance (km) Brightness Sun altitude
Exits shadow 05:10:16 44° 35° (NE) 573 -2.9 -21.6°
Drops below altitude 10° 05:12:59 10° 83° (E) 1,456 0.1 -21.2°
Sets 05:15:06 0° 89° (E) 2,315 1.6 -20.8°
